Powrót do katalogu

OPS 4682 DEB

LostPO
NORAD 38366·DEBRIS·🇺🇸 United States

Wystrzelony Apr 3, 1965 z Vandenberg Space Force Base

Loading…

Następne Przeloty (najbliższe 24 godziny)

TLE

NieaktualneSource: Space-Track

Epoka: Jul 16, 2013, 09:57 UTC

1 38366U 65027BT  13197.41517295 +.00000037 +00000-0 +10000-3 0  9995
2 38366 090.2768 245.2462 0024049 206.5052 156.2703 12.98162498502476

Śledź OPS 4682 DEB w czasie rzeczywistym z AllMySat

Download on the App Store